Location: Regensburg
(49.0167°N, 12.1000°E)
Time: 17:31:08
(UTC+01:00)

ISS - Visible Passes

Search period start: 30 November 2021 00:00
Search period end: 10 December 2021 00:00
Orbit: 417 x 423 km, 51.6° (Epoch: 30 November)

Date Brightness Start Highest point End Pass type
(mag) Time Alt. Az. Time Alt. Az. Time Alt. Az.
30 Nov -3.5 17:55:23 10° WNW 17:58:44 54° N 17:59:39 39° ENE visible
30 Nov -0.4 19:32:17 10° WNW 19:32:38 12° WNW 19:32:38 12° WNW visible
01 Dec -3.4 17:08:08 10° WNW 17:11:29 52° N 17:14:25 13° ENE visible
01 Dec -2.5 18:45:05 10° WNW 18:47:25 41° WNW 18:47:25 41° WNW visible
02 Dec -3.8 17:57:53 10° WNW 18:01:17 74° NNE 18:02:15 43° E visible
02 Dec -0.3 19:34:54 10° W 19:35:14 12° W 19:35:14 12° W visible
03 Dec -3.6 17:10:40 10° WNW 17:14:03 61° N 17:17:09 12° E visible
03 Dec -2.3 18:47:34 10° WNW 18:50:09 38° WSW 18:50:09 38° WSW visible
04 Dec -3.4 18:00:19 10° WNW 18:03:41 64° SSW 18:05:12 29° SE visible
04 Dec -0.2 19:38:09 10° WSW 19:38:12 10° WSW 19:38:12 10° WSW visible
05 Dec -3.7 17:13:04 10° WNW 17:16:29 86° SSW 17:19:53 10° ESE visible
05 Dec -1.5 18:50:22 10° W 18:52:59 21° SW 18:53:25 20° SSW visible
06 Dec -1.9 18:02:51 10° W 18:05:53 30° SW 18:08:52 10° SSE visible
07 Dec -2.5 17:15:30 10° WNW 17:18:45 44° SSW 17:21:59 10° SE visible
08 Dec -0.6 18:06:03 10° WSW 18:07:51 14° SW 18:09:37 10° SSW visible
09 Dec -0.9 17:18:12 10° W 17:20:47 20° SW 17:23:21 10° S visible
